Wind_Speed
45 47 49 50 52 57 61 63 64 65 66 66 63 67 64 57 55 52 50 52 47 44 45 42 44 50 53 51 48 44 41 40 43 43 41 40 38 33 29 24 20 18 16 12
38 42 45 48 51 53 57 63 64 66 68 70 70 70 70 62 58 55 53 52 51 48 45 46 44 49 55 53 50 47 43 42 43 43 44 43 41 36 30 25 22 21 18 14
41 43 45 48 50 52 54 60 62 67 70 72 73 77 74 67 64 61 56 53 52 53 49 47 47 47 52 56 52 49 46 43 42 44 46 45 41 36 31 27 25 23 18 15
43 44 45 47 51 52 51 60 63 66 69 75 72 78 76 73 70 65 58 58 55 53 54 50 50 49 50 57 55 52 49 46 44 45 46 45 41 39 37 32 28 23 20 18
43 43 44 47 53 54 54 62 64 65 69 75 71 79 73 77 72 66 67 62 59 56 58 54 52 52 51 54 58 55 52 50 47 45 45 45 43 42 39 33 29 26 23 22
42 45 51 54 59 60 62 70 68 68 72 77 73 77 87 76 72 70 67 68 63 59 58 59 55 56 53 52 58 58 56 53 50 47 46 44 43 43 40 35 32 29 26 25
42 45 51 56 60 61 62 67 68 70 72 78 75 80 86 74 73 74 70 69 66 63 61 61 59 55 55 52 55 61 59 56 53 49 48 46 43 44 42 38 36 33 29 27
44 46 49 53 56 59 49 49 51 59 64 67 59 74 76 77 75 76 74 72 71 65 63 63 62 60 56 54 52 59 59 58 55 51 48 47 46 46 44 40 38 35 31 30
45 47 47 49 42 45 35 32 30 35 35 37 43 65 76 74 74 72 71 69 72 71 65 66 63 62 59 57 53 57 60 60 57 54 50 48 46 47 45 42 40 37 35 32
49 50 47 34 27 24 25 20 20 27 31 38 32 36 51 58 65 67 71 70 67 60 73 67 65 65 62 57 55 55 58 61 59 56 53 50 47 46 46 45 42 40 38 35
51 53 51 31 18 23 19 13 16 18 30 38 38 35 19 25 26 38 55 67 66 65 56 69 67 63 65 58 57 56 56 61 61 58 55 53 51 49 47 45 44 42 41 37
45 49 48 28 20 17 16 16 24 24 24 34 44 39 7 16 24 27 38 63 61 64 66 54 66 68 64 63 57 55 55 58 61 59 56 55 55 51 48 47 45 43 42 39
44 43 46 33 21 22 25 17 22 31 28 27 38 37 11 29 31 32 38 42 65 63 70 63 56 62 64 63 56 56 56 57 60 60 58 56 57 53 52 50 47 45 44 41
41 40 36 33 20 24 26 23 21 24 32 29 30 38 19 30 34 44 34 38 45 59 65 65 68 63 63 67 62 54 54 55 59 61 59 57 56 54 53 51 49 47 45 42
37 41 35 33 28 26 21 16 15 11 22 23 33 25 31 34 39 36 36 45 44 49 55 65 65 65 57 63 64 60 55 54 57 61 59 58 58 56 55 53 51 49 47 44
33 37 36 38 31 33 26 19 18 17 20 14 25 28 33 35 42 30 25 41 48 49 52 57 65 64 59 58 53 57 59 54 56 59 59 59 60 58 56 54 52 50 48 47
35 33 36 41 26 31 33 29 27 20 17 12 22 32 17 30 39 34 31 27 47 48 51 56 62 68 63 59 52 49 59 58 54 57 59 59 61 60 58 56 54 51 49 47
37 28 35 38 31 30 22 28 31 25 19 7 16 24 20 16 40 32 31 30 31 45 50 49 51 62 69 61 54 50 50 60 57 56 59 59 62 62 60 59 56 53 51 48
31 29 37 39 37 34 21 22 32 30 16 3 7 11 20 23 33 30 34 19 22 39 46 48 48 50 53 66 62 55 49 56 59 57 58 59 60 63 62 61 58 55 53 50
34 31 38 39 41 42 13 23 25 31 22 7 3 16 23 20 35 30 31 15 22 27 35 45 53 55 54 54 64 59 46 53 61 58 58 59 59 61 62 61 59 56 54 51
36 31 38 38 40 43 23 23 27 27 25 17 7 11 8 27 28 34 34 19 20 32 28 32 39 49 51 49 57 60 55 47 55 54 54 54 57 57 59 60 58 56 55 54
43 36 38 37 38 43 30 25 26 26 27 25 16 7 8 22 33 32 37 27 22 20 30 25 32 36 44 48 47 56 61 56 52 54 56 54 52 55 58 57 56 55 55 55
45 39 39 42 40 31 28 29 29 30 31 28 24 13 8 13 27 31 36 37 28 24 30 30 32 30 40 45 52 49 51 52 55 56 55 55 56 54 53 54 54 54 55 56
46 36 39 36 33 30 26 27 32 33 35 35 30 20 16 10 24 36 36 37 38 29 29 36 30 31 34 41 48 51 50 54 53 55 59 56 54 55 55 53 52 53 53 54
37 38 39 37 32 21 25 27 30 35 38 35 33 32 24 18 12 34 36 39 46 32 33 36 38 30 32 38 43 48 54 51 49 52 58 60 55 54 54 54 53 52 52 51
32 37 42 38 26 26 22 28 33 32 37 37 34 33 29 24 19 19 37 38 43 49 38 34 35 39 31 25 40 48 49 50 50 51 54 61 60 58 59 58 56 54 54 54
Wind_Direction
264 265 265 264 262 260 259 258 254 255 256 253 249 248 248 242 241 241 240 244 242 240 240 236 234 231 227 222 220 220 222 223 222 220 219 221 223 225 228 234 238 247 255 266
266 269 270 270 268 265 262 259 258 255 256 257 252 245 250 244 239 241 243 241 239 242 241 238 233 233 229 225 221 219 220 222 223 222 222 221 224 225 229 237 239 244 251 260
271 273 274 273 271 270 271 270 264 260 256 257 256 247 247 247 242 239 240 243 241 239 239 239 235 230 230 228 223 221 221 220 222 222 224 224 226 227 233 237 238 242 249 255
279 280 280 278 276 273 268 265 265 265 262 261 258 255 245 247 246 243 238 238 238 236 237 237 237 230 228 227 227 222 221 220 219 222 224 226 224 225 229 232 239 245 247 250
290 289 289 288 284 279 275 272 267 262 260 262 259 260 246 245 243 243 240 237 234 234 232 232 234 233 226 225 226 224 220 220 218 219 223 224 224 226 232 234 239 241 242 248
296 295 296 293 290 286 281 279 274 269 264 257 257 258 250 245 243 240 240 235 232 229 233 230 231 231 229 226 224 223 222 219 218 218 220 221 222 226 229 232 235 237 239 246
298 300 301 298 295 294 291 284 279 270 264 261 257 254 253 247 246 243 238 236 233 229 228 231 229 231 230 224 223 223 223 220 219 216 219 219 218 223 226 227 232 236 236 241
308 307 312 309 303 297 295 284 280 277 268 266 261 255 248 247 242 241 240 237 234 228 226 230 227 229 228 226 221 221 223 223 219 216 218 220 218 221 224 225 228 230 232 238
315 318 321 312 306 300 295 283 274 279 282 284 276 256 245 245 242 238 238 237 235 229 225 225 224 226 227 225 222 217 219 223 221 218 217 219 220 221 223 223 224 227 230 235
324 327 324 314 294 282 291 290 288 263 284 289 288 271 253 239 239 239 235 231 229 232 225 221 223 222 225 224 222 218 214 219 221 220 218 218 219 221 222 222 223 224 227 231
327 329 329 317 266 269 252 261 277 288 272 279 282 273 271 248 235 238 233 231 225 222 224 223 220 223 222 223 220 220 215 216 219 219 218 218 219 219 220 221 221 223 226 227
325 324 322 319 234 264 246 270 259 286 285 259 275 265 292 193 193 225 223 230 221 216 217 214 216 217 217 221 220 221 218 217 217 217 217 219 218 218 219 220 220 221 224 225
325 318 317 320 257 251 248 265 275 281 304 302 280 267 253 249 198 208 211 214 227 218 213 211 212 212 216 217 219 217 218 215 216 217 215 217 220 218 218 219 219 220 223 224
317 310 305 305 301 261 246 243 265 290 283 304 276 281 217 250 220 206 211 200 213 221 216 209 214 213 212 213 215 215 216 217 216 217 214 214 219 220 219 219 218 220 221 222
306 305 295 292 283 270 267 269 273 282 301 293 274 263 265 249 230 209 198 208 202 208 216 210 210 212 212 210 214 215 216 217 216 217 214 213 217 219 219 218 218 220 220 221
294 299 289 285 289 270 260 272 281 286 290 275 268 275 294 265 246 244 239 192 202 199 209 210 206 204 202 200 201 211 215 215 215 215 215 212 214 217 218 218 218 218 219 221
299 294 287 290 288 272 252 266 267 275 287 279 272 276 290 266 246 249 247 207 204 211 202 206 209 200 198 197 196 204 210 212 214 213 214 212 213 216 217 219 218 218 220 221
301 289 282 290 291 281 245 252 257 269 296 295 272 276 292 251 248 245 229 230 188 202 214 214 201 205 206 199 199 202 207 207 209 211 212 213 213 215 216 219 220 220 221 223
288 275 279 280 285 291 227 234 254 254 220 251 256 264 213 234 239 231 213 246 207 196 204 215 214 207 204 209 206 206 212 209 207 209 210 212 214 215 217 219 220 221 222 224
289 266 267 274 286 282 244 233 251 251 261 220 243 233 183 211 226 229 226 236 242 191 196 205 205 208 208 210 206 205 206 208 206 208 210 211 212 214 217 219 221 221 222 223
282 271 265 271 280 274 281 253 247 253 242 213 208 192 161 173 218 226 208 197 218 230 190 193 204 200 202 206 207 203 205 203 207 207 209 211 212 214 215 217 219 219 220 221
285 271 260 265 274 271 276 266 260 253 246 235 214 143 190 169 205 219 231 226 200 219 204 189 189 193 200 202 197 202 207 206 206 209 211 211 211 214 216 216 216 217 217 218
279 279 262 259 268 268 262 264 257 256 246 238 218 215 214 207 195 201 226 232 215 201 231 212 180 186 196 200 204 204 205 206 207 209 211 210 211 212 213 215 216 216 218 218
268 262 253 254 253 266 263 254 260 255 249 242 232 225 210 226 210 210 215 223 224 217 213 228 188 183 194 197 199 203 207 207 209 210 211 213 213 213 213 214 214 216 218 219
278 238 240 254 253 263 255 245 247 249 250 248 245 242 242 233 228 207 197 195 208 207 200 226 215 197 186 200 198 205 207 209 210 211 209 211 210 211 212 212 214 216 217 218
268 235 240 251 240 257 244 242 249 254 250 251 247 246 246 234 234 220 207 213 199 210 207 197 225 230 213 199 201 199 200 203 204 206 208 211 209 209 209 210 213 215 216 217
Height
5644 5643 5643 5642 5642 5641 5642 5644 5645 5647 5646 5650 5657 5659 5665 5676 5684 5689 5693 5699 5704 5707 5711 5717 5722 5727 5732 5738 5744 5751 5757 5763 5769 5775 5780 5784 5786 5790 5795 5798 5800 5802 5803 5804
5635 5632 5631 5630 5627 5628 5628 5626 5629 5631 5630 5628 5634 5644 5644 5662 5671 5678 5683 5688 5695 5698 5702 5706 5713 5717 5724 5729 5737 5742 5749 5755 5762 5768 5772 5776 5780 5785 5790 5794 5796 5798 5799 5800
5624 5623 5622 5618 5615 5616 5616 5610 5610 5611 5613 5612 5612 5624 5633 5648 5653 5663 5672 5680 5684 5689 5692 5694 5700 5707 5712 5720 5728 5735 5741 5747 5754 5759 5763 5769 5775 5782 5786 5788 5791 5793 5796 5797
5611 5611 5609 5604 5600 5601 5605 5591 5594 5595 5596 5590 5599 5601 5618 5630 5640 5649 5662 5665 5670 5676 5680 5683 5687 5695 5701 5709 5716 5724 5730 5737 5744 5751 5756 5763 5770 5773 5775 5781 5786 5789 5791 5792
5600 5597 5593 5588 5581 5583 5584 5573 5577 5579 5579 5573 5592 5579 5605 5605 5622 5641 5641 5648 5654 5659 5665 5671 5675 5681 5689 5694 5704 5712 5719 5726 5733 5741 5748 5754 5761 5766 5770 5776 5780 5783 5785 5787
5589 5584 5577 5571 5563 5563 5563 5551 5559 5560 5559 5556 5573 5561 5565 5593 5610 5614 5623 5630 5638 5645 5650 5657 5663 5666 5675 5683 5690 5700 5709 5717 5724 5732 5738 5746 5753 5758 5763 5770 5773 5776 5779 5781
5579 5574 5563 5553 5546 5542 5541 5531 5532 5534 5536 5534 5543 5527 5547 5578 5585 5590 5599 5610 5620 5628 5635 5642 5649 5655 5662 5672 5680 5688 5697 5707 5714 5722 5729 5736 5743 5748 5755 5760 5765 5770 5773 5776
5564 5562 5546 5537 5525 5520 5524 5515 5513 5504 5509 5507 5510 5510 5541 5544 5554 5565 5579 5591 5599 5611 5620 5627 5635 5640 5647 5657 5666 5675 5686 5696 5705 5713 5720 5726 5733 5739 5746 5752 5757 5762 5766 5769
5549 5548 5536 5521 5515 5505 5508 5505 5504 5495 5496 5488 5493 5498 5513 5519 5532 5548 5561 5570 5580 5592 5602 5610 5616 5625 5633 5641 5653 5663 5673 5682 5692 5703 5710 5716 5724 5729 5737 5744 5749 5753 5758 5762
5534 5534 5523 5516 5510 5503 5499 5502 5500 5497 5490 5485 5483 5482 5485 5501 5514 5522 5530 5544 5561 5566 5579 5590 5601 5609 5620 5628 5638 5647 5659 5669 5679 5690 5699 5706 5714 5720 5727 5734 5740 5745 5749 5754
5518 5516 5515 5506 5503 5500 5502 5499 5494 5491 5487 5481 5474 5471 5481 5490 5502 5505 5510 5525 5539 5555 5563 5575 5585 5597 5606 5615 5624 5635 5645 5655 5666 5677 5687 5695 5703 5710 5718 5724 5731 5737 5741 5746
5506 5502 5497 5500 5498 5497 5495 5493 5490 5485 5481 5477 5469 5463 5481 5488 5491 5492 5495 5501 5512 5531 5545 5556 5566 5579 5590 5601 5611 5624 5634 5644 5654 5665 5675 5684 5691 5700 5708 5715 5722 5727 5733 5738
5500 5492 5485 5489 5494 5490 5487 5489 5485 5479 5476 5476 5466 5465 5476 5473 5474 5483 5487 5490 5503 5514 5526 5539 5551 5564 5576 5588 5599 5610 5622 5633 5642 5652 5663 5672 5681 5690 5698 5705 5712 5718 5724 5730
5493 5487 5483 5480 5485 5482 5481 5483 5481 5476 5475 5469 5466 5459 5471 5463 5463 5474 5481 5485 5492 5504 5515 5529 5540 5553 5563 5575 5586 5598 5609 5621 5631 5640 5652 5663 5671 5680 5687 5695 5702 5709 5715 5721
5485 5480 5478 5476 5477 5476 5475 5475 5475 5473 5471 5463 5458 5454 5452 5453 5455 5465 5473 5479 5485 5493 5504 5517 5529 5541 5553 5563 5574 5586 5596 5608 5619 5629 5640 5652 5660 5668 5676 5684 5692 5699 5705 5711
5479 5474 5469 5465 5470 5467 5468 5469 5466 5466 5462 5456 5455 5452 5449 5450 5452 5458 5464 5471 5479 5485 5495 5506 5518 5530 5541 5551 5562 5573 5585 5596 5606 5618 5628 5639 5647 5657 5666 5673 5681 5689 5695 5702
5471 5466 5461 5454 5460 5456 5460 5463 5460 5459 5456 5453 5452 5449 5448 5448 5449 5453 5460 5466 5472 5479 5486 5496 5507 5519 5531 5542 5551 5561 5572 5583 5594 5605 5616 5627 5636 5646 5655 5663 5671 5679 5686 5693
5459 5458 5452 5446 5448 5445 5452 5454 5452 5449 5448 5448 5448 5446 5444 5444 5446 5451 5459 5460 5467 5471 5479 5488 5497 5507 5520 5532 5543 5552 5560 5570 5582 5593 5604 5615 5625 5634 5643 5652 5661 5669 5676 5684
5450 5449 5444 5439 5438 5435 5440 5448 5444 5443 5445 5443 5441 5441 5438 5441 5443 5447 5454 5457 5461 5467 5474 5479 5489 5498 5508 5521 5533 5544 5552 5561 5571 5582 5593 5603 5613 5622 5631 5641 5650 5658 5666 5674
5443 5442 5437 5434 5429 5422 5431 5437 5436 5436 5435 5435 5436 5435 5429 5433 5437 5443 5450 5455 5459 5464 5469 5476 5481 5490 5500 5510 5523 5535 5543 5551 5561 5571 5582 5591 5600 5610 5619 5629 5638 5647 5655 5663
5433 5430 5427 5426 5420 5416 5424 5426 5427 5428 5429 5428 5429 5427 5424 5424 5432 5439 5445 5449 5455 5457 5462 5469 5475 5482 5492 5502 5512 5525 5535 5543 5553 5562 5571 5580 5590 5599 5607 5616 5625 5634 5642 5650
5419 5418 5417 5416 5413 5408 5418 5418 5418 5419 5419 5420 5423 5422 5423 5418 5427 5434 5439 5444 5446 5454 5456 5461 5469 5474 5484 5495 5503 5514 5525 5535 5543 5552 5561 5571 5579 5588 5597 5606 5614 5622 5630 5638
5401 5407 5407 5404 5403 5406 5409 5410 5411 5410 5410 5412 5415 5415 5416 5416 5419 5426 5433 5439 5443 5447 5453 5457 5463 5471 5477 5486 5496 5506 5516 5526 5534 5543 5552 5561 5569 5578 5587 5596 5604 5612 5619 5627
5392 5396 5392 5394 5397 5398 5401 5403 5404 5404 5401 5404 5407 5408 5410 5413 5414 5421 5427 5432 5439 5445 5450 5454 5460 5466 5473 5480 5488 5497 5506 5516 5524 5532 5542 5551 5560 5569 5578 5586 5594 5602 5610 5618
5376 5377 5381 5381 5388 5394 5393 5394 5392 5394 5394 5397 5400 5402 5405 5406 5410 5413 5420 5425 5431 5438 5445 5451 5455 5462 5469 5476 5481 5488 5497 5507 5515 5523 5532 5541 5549 5559 5568 5576 5585 5593 5601 5609
5360 5363 5368 5370 5383 5382 5385 5385 5384 5386 5389 5390 5392 5395 5399 5401 5403 5407 5410 5417 5423 5431 5437 5445 5451 5457 5464 5471 5477 5483 5490 5498 5506 5515 5523 5530 5538 5547 5555 5565 5575 5583 5590 5598